Change the Weather History Date:

Monday, December 23, 2013

  Actual Average Record
Temperature  
Mean Temperature 77 °F -  
Max Temperature 83 °F 89 °F - ()
Min Temperature 71 °F 74 °F - ()
Cooling Degree Days 12    
Growing Degree Days 27 (Base 50)    
Moisture  
Dew Point 70 °F    
Average Humidity 78    
Maximum Humidity 100    
Minimum Humidity 51    
Precipitation  
Precipitation 0.08 in 0.46 in - ()
Sea Level Pressure  
Sea Level Pressure 29.88 in    
Wind  
Wind Speed 6 mph ()    
Max Wind Speed 14 mph    
Max Gust Speed -    
Visibility 6.6 miles    
Events Rain    
T = Trace of Precipitation, MM = Missing Value Source: Averaged Metar Reports

Daily Weather History Graph

Daily Weather History Graph

Search for Another Location

Airport or City:

Trip Planner

Search our weather history database for the weather conditions in past years. The results will help you decide how hot, cold, wet, or windy it might be!

Date:

Astronomy

Dec. 23, 2013 Rise Set
Actual Time 5:41 AM AEST 6:50 PM AEST
Civil Twilight 5:17 AM AEST 7:14 PM AEST
Nautical Twilight 4:49 AM AEST 7:42 PM AEST
Astronomical Twilight 4:20 AM AEST 8:11 PM AEST
Moon 10:48 PM AEST (12/23) 10:12 AM AEST (12/23)
Length of Visible Light 13h 56m
Length of Day
13h 08m
Waning Gibbous, 73% of the Moon is Illuminated
Dec 23
Waning Gibbous
Dec 25
Last Quarter
Jan 1
New
Jan 8
First Quarter
Jan 16
Full

Hourly Weather History & Observations

Time (AEST) Temp. Heat Index Dew Point Humidity Pressure Visibility Wind Dir Wind Speed Gust Speed Precip Events Conditions
12:00 AM 74 °F - 71 °F 87% 29.90 in - SSW 3.5 mph - -   Overcast
12:00 AM 73.4 °F - 71.6 °F 94% 29.89 in 6.2 mi SSW 3.5 mph - N/A Rain Light Rain Showers
12:30 AM 73.4 °F - 71.6 °F 94% 29.89 in 6.2 mi West 2.3 mph - N/A   Scattered Clouds
1:00 AM 73 °F - 72 °F 94% 29.88 in - WNW 3.5 mph - -  
1:00 AM 73.4 °F - 71.6 °F 94% 29.86 in 6.2 mi WNW 3.5 mph - N/A   Scattered Clouds
1:30 AM 73.4 °F - 73.4 °F 100% 29.86 in 6.2 mi SE 4.6 mph - N/A   Mostly Cloudy
2:00 AM 73.4 °F - 71.6 °F 94% 29.83 in 6.2 mi SE 6.9 mph - N/A   Scattered Clouds
2:30 AM 73.4 °F - 71.6 °F 94% 29.83 in 6.2 mi SSE 4.6 mph - N/A   Scattered Clouds
3:00 AM 74 °F - 71 °F 87% 29.84 in - SSE 5.8 mph - -  
3:00 AM 73.4 °F - 71.6 °F 94% 29.83 in 6.2 mi SSE 5.8 mph - N/A   Partly Cloudy
3:30 AM 73.4 °F - 71.6 °F 94% 29.83 in 6.2 mi NNW 1.2 mph - N/A   Scattered Clouds
4:00 AM 74 °F - 71 °F 86% 29.85 in - South 1.2 mph - -  
4:00 AM 73.4 °F - 69.8 °F 88% 29.83 in 6.2 mi South 1.2 mph - N/A Rain Light Rain Showers
4:30 AM 73.4 °F - 69.8 °F 88% 29.83 in 6.2 mi SE 9.2 mph - N/A   Scattered Clouds
5:00 AM 77.0 °F - 69.8 °F 78% 29.83 in 6.2 mi South 6.9 mph - N/A   Scattered Clouds
5:30 AM 73.4 °F - 69.8 °F 88% 29.86 in 6.2 mi SE 8.1 mph - N/A   Scattered Clouds
6:00 AM 77 °F - 69 °F 68% 29.87 in 16 mi South 8.1 mph - -   Partly Cloudy
6:00 AM 77.0 °F - 68.0 °F 74% 29.86 in 6.2 mi South 8.1 mph - N/A   Scattered Clouds
6:30 AM 73.4 °F - 69.8 °F 88% 29.89 in 6.2 mi SSE 12.7 mph - N/A Rain Light Rain Showers
7:00 AM 75 °F - 71 °F 85% 29.90 in - SE 9.2 mph - -  
7:00 AM 75.2 °F - 71.6 °F 89% 29.89 in 6.2 mi SE 9.2 mph - N/A   Scattered Clouds
7:30 AM 77.0 °F - 69.8 °F 78% 29.89 in 6.2 mi South 9.2 mph - N/A   Scattered Clouds
8:00 AM 75.2 °F - 69.8 °F 83% 29.89 in 6.2 mi South 11.5 mph - N/A   Mostly Cloudy
8:30 AM 75.2 °F - 69.8 °F 83% 29.89 in 6.2 mi South 12.7 mph - N/A   Mostly Cloudy
9:00 AM 77 °F - 71 °F 77% 29.91 in 9 mi SSW 8.1 mph - -   Mostly Cloudy
9:00 AM 77.0 °F - 71.6 °F 83% 29.89 in 6.2 mi SSW 8.1 mph - N/A   Mostly Cloudy
9:30 AM 78.8 °F - 69.8 °F 74% 29.89 in 6.2 mi SSW 10.4 mph - N/A   Mostly Cloudy
10:00 AM 78 °F - 71 °F 72% 29.92 in - South 10.4 mph - -  
10:00 AM 77.0 °F - 69.8 °F 78% 29.92 in 6.2 mi South 10.4 mph - N/A   Mostly Cloudy
10:30 AM 78.8 °F - 71.6 °F 78% 29.89 in 6.2 mi South 8.1 mph - N/A Rain Light Rain Showers
11:00 AM 78.8 °F - 71.6 °F 78% 29.89 in 3.7 mi SSE 12.7 mph - N/A Rain Light Rain Showers
11:30 AM 78.8 °F - 73.4 °F 83% 29.89 in 6.2 mi South 4.6 mph - N/A   Mostly Cloudy
12:00 PM 83 °F - 74 °F 66% 29.90 in 12 mi SSW 2.3 mph - -   Mostly Cloudy
12:00 PM 82.4 °F 88.2 °F 73.4 °F 74% 29.89 in 6.2 mi SSW 2.3 mph - N/A   Mostly Cloudy
12:15 PM 80.6 °F 85.4 °F 73.4 °F 79% 29.89 in 3.7 mi ENE 4.6 mph - N/A Rain Light Rain Showers
12:30 PM 78.8 °F - 73.4 °F 83% 29.89 in 6.2 mi SE 8.1 mph - N/A   Mostly Cloudy
1:00 PM 80 °F - 72 °F 71% 29.90 in - WSW 3.5 mph - -  
1:00 PM 80.6 °F 84.6 °F 71.6 °F 74% 29.89 in 6.2 mi WSW 3.5 mph - N/A   Mostly Cloudy
1:30 PM 78.8 °F - 75.2 °F 89% 29.89 in 6.2 mi West 5.8 mph - N/A   Mostly Cloudy
2:00 PM 80.6 °F 85.4 °F 73.4 °F 79% 29.86 in 6.2 mi West 8.1 mph - N/A   Mostly Cloudy
2:30 PM 80.6 °F 85.4 °F 73.4 °F 79% 29.86 in 6.2 mi WNW 5.8 mph - N/A   Mostly Cloudy
3:00 PM 83 °F - 68 °F 51% 29.86 in 16 mi East 10.4 mph - -   Partly Cloudy
3:00 PM 82.4 °F 85.4 °F 68.0 °F 62% 29.86 in 6.2 mi East 10.4 mph - N/A   Mostly Cloudy
3:30 PM 82.4 °F 86.3 °F 69.8 °F 66% 29.83 in 6.2 mi East 12.7 mph - N/A   Mostly Cloudy
4:00 PM 83 °F - 69 °F 54% 29.86 in - ESE 11.5 mph - -  
4:00 PM 82.4 °F 86.3 °F 69.8 °F 66% 29.83 in 6.2 mi ESE 11.5 mph - N/A   Mostly Cloudy
4:30 PM 82.4 °F 85.4 °F 68.0 °F 62% 29.83 in 6.2 mi ESE 11.5 mph - N/A   Scattered Clouds
5:00 PM 82.4 °F 85.4 °F 68.0 °F 62% 29.86 in 6.2 mi ESE 13.8 mph - N/A   Scattered Clouds
5:30 PM 80.6 °F 83.2 °F 68.0 °F 65% 29.86 in 6.2 mi ESE 12.7 mph - N/A   Scattered Clouds
6:00 PM 81 °F - 67 °F 54% 29.88 in - ESE 10.4 mph - -   Overcast
6:00 PM 80.6 °F 83.2 °F 68.0 °F 65% 29.86 in 6.2 mi ESE 10.4 mph - N/A   Scattered Clouds
6:30 PM 80.6 °F 83.2 °F 68.0 °F 65% 29.89 in 6.2 mi ESE 11.5 mph - N/A   Mostly Cloudy
7:00 PM 80 °F - 68 °F 58% 29.90 in - ESE 9.2 mph - -  
7:00 PM 80.6 °F 83.2 °F 68.0 °F 65% 29.89 in 6.2 mi ESE 9.2 mph - N/A   Mostly Cloudy
7:30 PM 78.8 °F - 68.0 °F 69% 29.89 in 6.2 mi SSE 6.9 mph - N/A   Mostly Cloudy
8:00 PM 77.0 °F - 68.0 °F 74% 29.89 in 6.2 mi South 5.8 mph - N/A   Scattered Clouds
8:30 PM 77.0 °F - 68.0 °F 74% 29.92 in 6.2 mi South 4.6 mph - N/A   Scattered Clouds
9:00 PM 76 °F - 68 °F 69% 29.92 in - SSE 4.6 mph - -  
9:00 PM 75.2 °F - 68.0 °F 78% 29.92 in 6.2 mi SSE 4.6 mph - N/A   Partly Cloudy
9:30 PM 77.0 °F - 68.0 °F 74% 29.92 in 6.2 mi South 2.3 mph - N/A   Partly Cloudy
10:00 PM 74 °F - 69 °F 81% 29.93 in - NW 2.3 mph - -  
10:00 PM 73.4 °F - 69.8 °F 88% 29.92 in 6.2 mi NW 2.3 mph - N/A   Mostly Cloudy
10:30 PM 73.4 °F - 69.8 °F 88% 29.92 in 6.2 mi NNW 2.3 mph - N/A   Scattered Clouds
11:00 PM 71.6 °F - 69.8 °F 94% 29.92 in 6.2 mi North 2.3 mph - N/A   Scattered Clouds
11:30 PM 71.6 °F - 69.8 °F 94% 29.92 in 6.2 mi Calm Calm - N/A   Partly Cloudy